This is the latest recevied weather packets stored in our database for station/object N0KWA. If no packets are shown the sender has not sent any weather packets the latest 10 day(s).
| Time | Temp. | Humidity | Pressure | Rain* | Wind** | Luminosity | Snow |
|---|---|---|---|---|---|---|---|
| 1788024642 | 32.78° C | 58% | 1019.5 hPa | 0 mm | - | 288 W/m² | - |
| 1788024337 | 32.78° C | 57% | 1019.4 hPa | 0 mm | - | 88 W/m² | - |
| 1788024033 | 32.78° C | 61% | 1019.4 hPa | 0 mm | - | 34 W/m² | - |
| 1788023733 | 32.22° C | 63% | 1019.6 hPa | 0 mm | - | 82 W/m² | - |
| 1788023428 | 32.22° C | 68% | 1019.5 hPa | 0 mm | - | 62 W/m² | - |
| 1788023128 | 32.22° C | 68% | 1019.8 hPa | 0 mm | - | 33 W/m² | - |
| 1788022828 | 31.67° C | 67% | 1019.9 hPa | 0 mm | - | 30 W/m² | - |
| 1788022525 | 31.67° C | 65% | 1020.1 hPa | 0 mm | - | 36 W/m² | - |
| 1788022220 | 31.67° C | 64% | 1020 hPa | 0 mm | - | 29 W/m² | - |
| 1788021918 | 31.67° C | 68% | 1019.7 hPa | 0 mm | - | 29 W/m² | - |
| 1788021614 | 31.67° C | 68% | 1019.8 hPa | 0 mm | - | 63 W/m² | - |
| 1788021311 | 31.67° C | 67% | 1019.6 hPa | 0 mm | - | 28 W/m² | - |
| 1788021007 | 31.11° C | 70% | 1019.7 hPa | 0 mm | - | 27 W/m² | - |
| 1788020702 | 31.11° C | 69% | 1019.8 hPa | 0 mm | - | 27 W/m² | - |
| 1788020401 | 31.11° C | 69% | 1019.8 hPa | 0 mm | - | 26 W/m² | - |
| 1788020098 | 31.11° C | 69% | 1019.9 hPa | 0 mm | - | 43 W/m² | - |
| 1788019793 | 30.56° C | 71% | 1019.8 hPa | 0 mm | - | 26 W/m² | - |
| 1788019492 | 30.56° C | 71% | 1019.8 hPa | 0 mm | - | 36 W/m² | - |
| 1788019190 | 30.56° C | 75% | 1019.8 hPa | 0 mm | - | 113 W/m² | - |
| 1788018885 | 30° C | 75% | 1019.9 hPa | 0 mm | - | 39 W/m² | - |
| 1788018580 | 30° C | 77% | 1019.8 hPa | 0 mm | - | 36 W/m² | - |
| 1788018278 | 30° C | 76% | 1019.7 hPa | 0 mm | - | 22 W/m² | - |
| 1788017975 | 30° C | 78% | 1019.7 hPa | 0 mm | - | 23 W/m² | - |
| 1788017671 | 29.44° C | 77% | 1019.7 hPa | 0 mm | - | 22 W/m² | - |
| 1788017367 | 29.44° C | 77% | 1019.6 hPa | 0 mm | - | 21 W/m² | - |
* Rain latest hour (hover to see other rain measurements)
** Current wind speed in m/s (hover to see current wind gust speed)